,,PressureMeas_1m,,PRMeasQMR101_1,,RHStat155_1m_1,,SRMeasQMS101R_1m,,TAStat155_1m_1,,GenWind_1,,GenWind_1,
2017-06-17, 07:00:06,VALID,917.163,VALID,0.0,VALID,93.86,VALID,95.08,VALID,21.23,VALID,159.0,VALID,1.693,
2017-06-17, 07:01:06,VALID,917.174,VALID,0.0,VALID,93.572,VALID,95.274,VALID,21.301,VALID,162.0,VALID,1.56,
2017-06-17, 07:02:06,VALID,917.176,VALID,0.0,VALID,93.295,VALID,96.598,VALID,21.348,VALID,170.0,VALID,1.496,
2017-06-17, 07:03:06,VALID,917.168,VALID,0.0,VALID,92.862,VALID,99.118,VALID,21.387,VALID,157.0,VALID,1.695,
2017-06-17, 07:04:06,VALID,917.169,VALID,0.0,VALID,93.021,VALID,99.576,VALID,21.421,VALID,166.0,VALID,1.019,
2017-06-17, 07:05:06,VALID,917.158,VALID,0.0,VALID,93.206,VALID,99.515,VALID,21.452,VALID,168.0,VALID,0.752,
2017-06-17, 07:06:06,VALID,917.145,VALID,0.0,VALID,93.266,VALID,99.897,VALID,21.47,VALID,181.0,VALID,1.03,
2017-06-17, 07:07:06,VALID,917.157,VALID,0.0,VALID,93.05,VALID,100.36,VALID,21.469,VALID,162.0,VALID,1.321,
2017-06-17, 07:08:06,VALID,917.162,VALID,0.0,VALID,93.013,VALID,100.048,VALID,21.464,VALID,156.0,VALID,1.88,
2017-06-17, 07:09:06,VALID,917.175,VALID,0.0,VALID,92.498,VALID,98.347,VALID,21.503,VALID,153.0,VALID,1.938,
2017-06-17, 07:10:06,VALID,917.195,VALID,0.0,VALID,92.518,VALID,97.3,VALID,21.543,VALID,146.0,VALID,1.968,
2017-06-17, 07:11:06,VALID,917.204,VALID,0.0,VALID,92.354,VALID,96.959,VALID,21.571,VALID,157.0,VALID,1.726,
2017-06-17, 07:12:06,VALID,917.236,VALID,0.0,VALID,92.442,VALID,97.144,VALID,21.588,VALID,153.0,VALID,1.382,
2017-06-17, 07:13:06,VALID,917.26,VALID,0.0,VALID,92.523,VALID,97.06,VALID,21.607,VALID,163.0,VALID,1.195,
2017-06-17, 07:14:06,VALID,917.29,VALID,0.0,VALID,92.481,VALID,95.855,VALID,21.619,VALID,152.0,VALID,1.366,
2017-06-17, 07:15:06,VALID,917.307,VALID,0.0,VALID,92.697,VALID,94.398,VALID,21.624,VALID,161.0,VALID,1.129,
2017-06-17, 07:16:06,VALID,917.339,VALID,0.0,VALID,92.974,VALID,94.183,VALID,21.638,VALID,150.0,VALID,1.158,
2017-06-17, 07:17:06,VALID,917.355,VALID,0.0,VALID,93.03,VALID,96.606,VALID,21.641,VALID,154.0,VALID,1.371,
2017-06-17, 07:18:06,VALID,917.361,VALID,0.0,VALID,93.247,VALID,101.353,VALID,21.645,VALID,147.0,VALID,1.225,
2017-06-17, 07:19:06,VALID,917.362,VALID,0.0,VALID,93.116,VALID,107.473,VALID,21.627,VALID,163.0,VALID,0.872,
2017-06-17, 07:20:06,VALID,917.358,VALID,0.0,VALID,92.704,VALID,113.747,VALID,21.575,VALID,157.0,VALID,1.495,
2017-06-17, 07:21:06,VALID,917.338,VALID,0.0,VALID,93.01,VALID,119.682,VALID,21.5,VALID,164.0,VALID,1.242,
2017-06-17, 07:22:06,VALID,917.347,VALID,0.0,VALID,93.4,VALID,125.306,VALID,21.491,VALID,165.0,VALID,1.073,
2017-06-17, 07:23:06,VALID,917.338,VALID,0.0,VALID,93.399,VALID,132.138,VALID,21.511,VALID,156.0,VALID,1.268,
2017-06-17, 07:24:06,VALID,917.348,VALID,0.0,VALID,93.372,VALID,137.084,VALID,21.522,VALID,151.0,VALID,1.108,
2017-06-17, 07:25:06,VALID,917.359,VALID,0.0,VALID,93.587,VALID,144.03,VALID,21.559,VALID,157.0,VALID,1.064,
2017-06-17, 07:26:06,VALID,917.368,VALID,0.0,VALID,93.668,VALID,152.24,VALID,21.608,VALID,176.0,VALID,0.529,
2017-06-17, 07:27:06,VALID,917.371,VALID,0.0,VALID,93.556,VALID,160.059,VALID,21.658,VALID,151.0,VALID,1.575,
2017-06-17, 07:28:06,VALID,917.385,VALID,0.0,VALID,93.429,VALID,168.208,VALID,21.707,VALID,161.0,VALID,1.07,
2017-06-17, 07:29:06,VALID,917.407,VALID,0.0,VALID,92.679,VALID,175.6,VALID,21.753,VALID,161.0,VALID,1.889,
2017-06-17, 07:30:06,VALID,917.426,VALID,0.0,VALID,92.378,VALID,184.086,VALID,21.787,VALID,166.0,VALID,1.124,
2017-06-17, 07:31:06,VALID,917.452,VALID,0.0,VALID,92.609,VALID,209.115,VALID,21.844,VALID,160.0,VALID,1.6,
2017-06-17, 07:32:06,VALID,917.479,VALID,0.0,VALID,92.064,VALID,205.953,VALID,21.877,VALID,160.0,VALID,1.631,
2017-06-17, 07:33:06,VALID,917.495,VALID,0.0,VALID,92.044,VALID,228.077,VALID,21.922,VALID,157.0,VALID,1.066,
2017-06-17, 07:34:06,VALID,917.519,VALID,0.0,VALID,92.082,VALID,228.537,VALID,22.02,VALID,159.0,VALID,1.6,
2017-06-17, 07:35:06,VALID,917.546,VALID,0.0,VALID,91.466,VALID,227.919,VALID,22.095,VALID,154.0,VALID,1.589,
2017-06-17, 07:36:06,VALID,917.562,VALID,0.0,VALID,91.08,VALID,264.618,VALID,22.127,VALID,155.0,VALID,1.849,
2017-06-17, 07:37:06,VALID,917.574,VALID,0.0,VALID,90.749,VALID,247.599,VALID,22.12,VALID,162.0,VALID,1.539,
2017-06-17, 07:38:06,VALID,917.581,VALID,0.0,VALID,90.893,VALID,223.136,VALID,22.157,VALID,160.0,VALID,1.614,
2017-06-17, 07:39:06,VALID,917.576,VALID,0.0,VALID,90.716,VALID,240.697,VALID,22.205,VALID,156.0,VALID,1.866,
2017-06-17, 07:40:06,VALID,917.578,VALID,0.0,VALID,90.326,VALID,239.274,VALID,22.21,VALID,155.0,VALID,1.678,
2017-06-17, 07:41:07,VALID,917.568,VALID,0.0,VALID,90.492,VALID,200.267,VALID,22.245,VALID,138.0,VALID,1.475,
2017-06-17, 07:42:07,VALID,917.565,VALID,0.0,VALID,90.542,VALID,176.307,VALID,22.305,VALID,142.0,VALID,1.177,
2017-06-17, 07:43:07,VALID,917.562,VALID,0.0,VALID,90.009,VALID,175.376,VALID,22.347,VALID,147.0,VALID,1.434,
2017-06-17, 07:44:07,VALID,917.55,VALID,0.0,VALID,89.641,VALID,177.422,VALID,22.353,VALID,133.0,VALID,1.303,
2017-06-17, 07:45:07,VALID,917.565,VALID,0.0,VALID,89.853,VALID,181.838,VALID,22.399,VALID,156.0,VALID,0.957,
2017-06-17, 07:46:07,VALID,917.57,VALID,0.0,VALID,89.673,VALID,185.964,VALID,22.443,VALID,144.0,VALID,0.939,
2017-06-17, 07:47:07,VALID,917.596,VALID,0.0,VALID,90.204,VALID,189.943,VALID,22.486,VALID,140.0,VALID,1.029,
2017-06-17, 07:48:07,VALID,917.616,VALID,0.0,VALID,89.948,VALID,192.863,VALID,22.505,VALID,149.0,VALID,1.037,
2017-06-17, 07:49:07,VALID,917.629,VALID,0.0,VALID,89.916,VALID,194.735,VALID,22.525,VALID,154.0,VALID,0.618,
2017-06-17, 07:50:07,VALID,917.652,VALID,0.0,VALID,89.511,VALID,197.57,VALID,22.599,VALID,155.0,VALID,0.724,
2017-06-17, 07:51:07,VALID,917.664,VALID,0.0,VALID,88.741,VALID,210.647,VALID,22.618,VALID,154.0,VALID,1.624,
2017-06-17, 07:52:07,VALID,917.656,VALID,0.0,VALID,88.809,VALID,262.449,VALID,22.599,VALID,161.0,VALID,1.158,
2017-06-17, 07:53:07,VALID,917.658,VALID,0.0,VALID,88.52,VALID,298.702,VALID,22.603,VALID,156.0,VALID,2.024,
2017-06-17, 07:54:07,VALID,917.647,VALID,0.0,VALID,88.696,VALID,242.987,VALID,22.579,VALID,157.0,VALID,1.444,
2017-06-17, 07:55:07,VALID,917.617,VALID,0.0,VALID,88.948,VALID,228.187,VALID,22.61,VALID,162.0,VALID,0.948,
2017-06-17, 07:56:07,VALID,917.597,VALID,0.0,VALID,88.573,VALID,276.348,VALID,22.675,VALID,152.0,VALID,1.507,
2017-06-17, 07:57:07,VALID,917.563,VALID,0.0,VALID,87.927,VALID,293.538,VALID,22.67,VALID,152.0,VALID,1.721,
2017-06-17, 07:58:07,VALID,917.533,VALID,0.0,VALID,87.724,VALID,282.509,VALID,22.689,VALID,155.0,VALID,1.679,
2017-06-17, 07:59:07,VALID,917.503,VALID,0.0,VALID,88.171,VALID,268.244,VALID,22.76,VALID,157.0,VALID,1.268,
2017-06-17, 08:00:07,VALID,917.494,VALID,0.0,VALID,86.868,VALID,219.686,VALID,22.836,VALID,151.0,VALID,1.904,
2017-06-17, 08:01:07,VALID,917.502,VALID,0.0,VALID,86.527,VALID,180.851,VALID,22.794,VALID,151.0,VALID,1.766,
2017-06-17, 08:02:07,VALID,917.525,VALID,0.0,VALID,86.851,VALID,183.461,VALID,22.756,VALID,156.0,VALID,1.648,
2017-06-17, 08:03:07,VALID,917.55,VALID,0.0,VALID,86.996,VALID,211.874,VALID,22.739,VALID,157.0,VALID,1.632,
2017-06-17, 08:04:07,VALID,917.58,VALID,0.0,VALID,87.136,VALID,213.887,VALID,22.742,VALID,160.0,VALID,1.537,
2017-06-17, 08:05:07,VALID,917.624,VALID,0.0,VALID,87.2,VALID,187.647,VALID,22.768,VALID,166.0,VALID,1.137,
2017-06-17, 08:06:07,VALID,917.655,VALID,0.0,VALID,86.873,VALID,193.004,VALID,22.8,VALID,158.0,VALID,1.363,
2017-06-17, 08:07:07,VALID,917.688,VALID,0.0,VALID,86.921,VALID,214.635,VALID,22.831,VALID,168.0,VALID,1.271,
2017-06-17, 08:08:07,VALID,917.717,VALID,0.0,VALID,86.308,VALID,266.17,VALID,22.909,VALID,152.0,VALID,1.554,
2017-06-17, 08:09:07,VALID,917.725,VALID,0.0,VALID,86.819,VALID,244.028,VALID,22.949,VALID,161.0,VALID,1.5,
2017-06-17, 08:10:07,VALID,917.73,VALID,0.0,VALID,85.654,VALID,247.883,VALID,22.967,VALID,141.0,VALID,1.641,
2017-06-17, 08:11:07,VALID,917.718,VALID,0.0,VALID,86.792,VALID,237.893,VALID,23.025,VALID,168.0,VALID,1.383,
2017-06-17, 08:12:07,VALID,917.714,VALID,0.0,VALID,86.65,VALID,231.029,VALID,23.086,VALID,177.0,VALID,1.218,
2017-06-17, 08:13:07,VALID,917.694,VALID,0.0,VALID,85.555,VALID,222.506,VALID,23.124,VALID,150.0,VALID,1.411,
2017-06-17, 08:14:07,VALID,917.681,VALID,0.0,VALID,85.047,VALID,217.981,VALID,23.087,VALID,158.0,VALID,1.544,
2017-06-17, 08:15:07,VALID,917.678,VALID,0.0,VALID,85.891,VALID,228.429,VALID,23.084,VALID,167.0,VALID,1.371,
2017-06-17, 08:16:07,VALID,917.68,VALID,0.0,VALID,85.783,VALID,224.651,VALID,23.147,VALID,166.0,VALID,1.218,
2017-06-17, 08:17:07,VALID,917.681,VALID,0.0,VALID,85.27,VALID,232.485,VALID,23.204,VALID,166.0,VALID,1.361,
2017-06-17, 08:18:07,VALID,917.697,VALID,0.0,VALID,84.754,VALID,242.635,VALID,23.276,VALID,175.0,VALID,0.6,
2017-06-17, 08:19:07,VALID,917.722,VALID,0.0,VALID,83.519,VALID,246.306,VALID,23.388,VALID,165.0,VALID,1.415,
2017-06-17, 08:20:07,VALID,917.755,VALID,0.0,VALID,82.931,VALID,236.437,VALID,23.411,VALID,165.0,VALID,1.277,
2017-06-17, 08:21:07,VALID,917.779,VALID,0.0,VALID,84.063,VALID,226.891,VALID,23.42,VALID,155.0,VALID,1.067,
2017-06-17, 08:22:07,VALID,917.791,VALID,0.0,VALID,82.876,VALID,228.692,VALID,23.405,VALID,157.0,VALID,1.971,
2017-06-17, 08:23:07,VALID,917.823,VALID,0.0,VALID,82.629,VALID,237.139,VALID,23.35,VALID,124.0,VALID,1.784,
2017-06-17, 08:24:07,VALID,917.83,VALID,0.0,VALID,83.484,VALID,244.849,VALID,23.349,VALID,167.0,VALID,1.044,
2017-06-17, 08:25:07,VALID,917.849,VALID,0.0,VALID,83.195,VALID,245.037,VALID,23.44,VALID,165.0,VALID,1.471,
2017-06-17, 08:26:07,VALID,917.881,VALID,0.0,VALID,83.562,VALID,236.485,VALID,23.498,VALID,148.0,VALID,1.393,
2017-06-17, 08:27:07,VALID,917.912,VALID,0.0,VALID,83.751,VALID,228.238,VALID,23.541,VALID,166.0,VALID,1.223,
2017-06-17, 08:28:07,VALID,917.96,VALID,0.0,VALID,83.194,VALID,223.577,VALID,23.576,VALID,164.0,VALID,1.762,
2017-06-17, 08:29:07,VALID,918.019,VALID,0.0,VALID,82.164,VALID,226.597,VALID,23.581,VALID,180.0,VALID,1.587,
2017-06-17, 08:30:07,VALID,918.048,VALID,0.0,VALID,80.837,VALID,235.918,VALID,23.611,VALID,136.0,VALID,1.756,
2017-06-17, 08:31:07,VALID,918.096,VALID,0.0,VALID,82.338,VALID,246.574,VALID,23.6,VALID,168.0,VALID,0.67,
2017-06-17, 08:32:07,VALID,918.133,VALID,0.0,VALID,83.761,VALID,251.343,VALID,23.645,VALID,153.0,VALID,0.73,
2017-06-17, 08:33:07,VALID,918.157,VALID,0.0,VALID,83.457,VALID,249.469,VALID,23.684,VALID,179.0,VALID,0.347,
2017-06-17, 08:34:07,VALID,918.177,VALID,0.0,VALID,82.969,VALID,247.121,VALID,23.78,VALID,193.0,VALID,0.705,
2017-06-17, 08:35:07,VALID,918.183,VALID,0.0,VALID,82.531,VALID,246.698,VALID,23.867,VALID,186.0,VALID,0.635,
2017-06-17, 08:36:07,VALID,918.184,VALID,0.0,VALID,81.887,VALID,251.125,VALID,23.914,VALID,183.0,VALID,0.744,
2017-06-17, 08:37:07,VALID,918.182,VALID,0.0,VALID,81.721,VALID,275.787,VALID,23.974,VALID,192.0,VALID,0.944,
2017-06-17, 08:38:07,VALID,918.182,VALID,0.0,VALID,82.066,VALID,281.487,VALID,24.037,VALID,195.0,VALID,0.673,
2017-06-17, 08:39:07,VALID,918.166,VALID,0.0,VALID,81.114,VALID,282.534,VALID,24.096,VALID,194.0,VALID,0.543,
2017-06-17, 08:40:07,VALID,918.166,VALID,0.0,VALID,82.219,VALID,279.572,VALID,24.103,VALID,157.0,VALID,0.5,
2017-06-17, 08:41:07,VALID,918.188,VALID,0.0,VALID,82.666,VALID,276.189,VALID,24.103,VALID,157.0,VALID,0.673,
2017-06-17, 08:42:07,VALID,918.215,VALID,0.0,VALID,82.552,VALID,276.379,VALID,24.093,VALID,190.0,VALID,1.291,
2017-06-17, 08:43:07,VALID,918.236,VALID,0.0,VALID,81.856,VALID,288.625,VALID,24.097,VALID,193.0,VALID,1.185,
2017-06-17, 08:44:07,VALID,918.271,VALID,0.0,VALID,81.974,VALID,358.482,VALID,24.117,VALID,209.0,VALID,0.688,
2017-06-17, 08:45:07,VALID,918.3,VALID,0.0,VALID,82.199,VALID,302.947,VALID,24.171,VALID,194.0,VALID,0.425,
2017-06-17, 08:46:07,VALID,918.329,VALID,0.0,VALID,82.429,VALID,289.814,VALID,24.273,VALID,176.0,VALID,0.334,
2017-06-17, 08:47:07,VALID,918.352,VALID,0.0,VALID,80.078,VALID,283.478,VALID,24.261,VALID,133.0,VALID,0.908,
2017-06-17, 08:48:07,VALID,918.386,VALID,0.0,VALID,79.668,VALID,282.376,VALID,24.251,VALID,149.0,VALID,0.92,
2017-06-17, 08:49:07,VALID,918.407,VALID,0.0,VALID,80.361,VALID,288.907,VALID,24.186,VALID,124.0,VALID,1.1,
2017-06-17, 08:50:07,VALID,918.42,VALID,0.0,VALID,81.154,VALID,292.901,VALID,24.071,VALID,115.0,VALID,0.369,
2017-06-17, 08:51:07,VALID,918.428,VALID,0.0,VALID,82.329,VALID,292.706,VALID,24.147,VALID,147.0,VALID,0.331,
2017-06-17, 08:52:07,VALID,918.435,VALID,0.0,VALID,80.15,VALID,291.928,VALID,24.253,VALID,113.0,VALID,0.36,
2017-06-17, 08:53:07,VALID,918.432,VALID,0.0,VALID,79.987,VALID,293.258,VALID,24.362,VALID,164.0,VALID,0.553,
2017-06-17, 08:54:07,VALID,918.422,VALID,0.0,VALID,80.508,VALID,300.605,VALID,24.361,VALID,161.0,VALID,1.074,
2017-06-17, 08:55:07,VALID,918.402,VALID,0.0,VALID,78.617,VALID,305.455,VALID,24.348,VALID,190.0,VALID,0.654,
2017-06-17, 08:56:07,VALID,918.379,VALID,0.0,VALID,78.323,VALID,298.374,VALID,24.421,VALID,190.0,VALID,0.455,
2017-06-17, 08:57:07,VALID,918.372,VALID,0.0,VALID,79.177,VALID,281.298,VALID,24.519,VALID,170.0,VALID,0.759,
2017-06-17, 08:58:07,VALID,918.364,VALID,0.0,VALID,78.974,VALID,275.995,VALID,24.478,VALID,159.0,VALID,1.439,
2017-06-17, 08:59:07,VALID,918.355,VALID,0.0,VALID,77.964,VALID,274.241,VALID,24.439,VALID,198.0,VALID,0.714,
2017-06-17, 09:00:07,VALID,918.349,VALID,0.0,VALID,78.527,VALID,269.183,VALID,24.479,VALID,183.0,VALID,0.764,
2017-06-17, 09:01:07,VALID,918.353,VALID,0.0,VALID,78.804,VALID,266.196,VALID,24.516,VALID,186.0,VALID,1.251,
2017-06-17, 09:02:07,VALID,918.345,VALID,0.0,VALID,78.234,VALID,266.337,VALID,24.535,VALID,182.0,VALID,1.15,
2017-06-17, 09:03:07,VALID,918.362,VALID,0.0,VALID,78.463,VALID,273.95,VALID,24.493,VALID,155.0,VALID,1.259,
2017-06-17, 09:04:07,VALID,918.343,VALID,0.0,VALID,79.385,VALID,283.845,VALID,24.34,VALID,170.0,VALID,1.413,
2017-06-17, 09:05:07,VALID,918.346,VALID,0.0,VALID,79.926,VALID,290.927,VALID,24.295,VALID,170.0,VALID,0.545,
2017-06-17, 09:06:07,VALID,918.327,VALID,0.0,VALID,79.81,VALID,290.294,VALID,24.344,VALID,158.0,VALID,0.52,
2017-06-17, 09:07:07,VALID,918.314,VALID,0.0,VALID,78.758,VALID,281.359,VALID,24.373,VALID,187.0,VALID,0.638,
2017-06-17, 09:08:07,VALID,918.293,VALID,0.0,VALID,78.333,VALID,280.106,VALID,24.494,VALID,183.0,VALID,0.685,
2017-06-17, 09:09:07,VALID,918.272,VALID,0.0,VALID,78.608,VALID,286.956,VALID,24.612,VALID,193.0,VALID,0.459,
2017-06-17, 09:10:07,VALID,918.281,VALID,0.0,VALID,79.782,VALID,296.147,VALID,24.7,VALID,173.0,VALID,1.028,
2017-06-17, 09:11:07,VALID,918.282,VALID,0.0,VALID,77.618,VALID,305.857,VALID,24.701,VALID,153.0,VALID,1.179,
2017-06-17, 09:12:07,VALID,918.284,VALID,0.0,VALID,76.958,VALID,324.212,VALID,24.575,VALID,152.0,VALID,0.91,
2017-06-17, 09:13:07,VALID,918.275,VALID,0.0,VALID,78.033,VALID,378.748,VALID,24.532,VALID,186.0,VALID,0.854,
2017-06-17, 09:14:07,VALID,918.27,VALID,0.0,VALID,78.478,VALID,595.412,VALID,24.669,VALID,175.0,VALID,0.601,
2017-06-17, 09:15:07,VALID,918.26,VALID,0.0,VALID,78.768,VALID,644.692,VALID,24.801,VALID,189.0,VALID,0.588,
2017-06-17, 09:16:07,VALID,918.255,VALID,0.0,VALID,77.94,VALID,604.165,VALID,24.971,VALID,196.0,VALID,0.592,
2017-06-17, 09:17:07,VALID,918.244,VALID,0.0,VALID,75.876,VALID,653.431,VALID,25.185,VALID,198.0,VALID,0.714,
2017-06-17, 09:18:07,VALID,918.225,VALID,0.0,VALID,74.888,VALID,594.136,VALID,25.33,VALID,181.0,VALID,0.767,
2017-06-17, 09:19:07,VALID,918.212,VALID,0.0,VALID,75.149,VALID,570.591,VALID,25.432,VALID,175.0,VALID,0.548,
2017-06-17, 09:20:07,VALID,918.177,VALID,0.0,VALID,75.462,VALID,386.251,VALID,25.491,VALID,134.0,VALID,0.304,
2017-06-17, 09:21:07,VALID,918.174,VALID,0.0,VALID,74.863,VALID,478.354,VALID,25.68,VALID,119.0,VALID,0.142,
2017-06-17, 09:22:07,VALID,918.147,VALID,0.0,VALID,74.026,VALID,603.709,VALID,25.789,VALID,133.0,VALID,1.266,
2017-06-17, 09:23:07,VALID,918.134,VALID,0.0,VALID,74.084,VALID,615.815,VALID,25.638,VALID,115.0,VALID,1.151,
2017-06-17, 09:24:07,VALID,918.094,VALID,0.0,VALID,75.348,VALID,551.996,VALID,25.582,VALID,97.0,VALID,1.334,
2017-06-17, 09:25:07,VALID,918.05,VALID,0.0,VALID,75.499,VALID,553.689,VALID,25.413,VALID,77.0,VALID,1.744,
2017-06-17, 09:26:07,VALID,918.023,VALID,0.0,VALID,74.477,VALID,531.811,VALID,25.159,VALID,80.0,VALID,1.878,
2017-06-17, 09:27:07,VALID,917.979,VALID,0.0,VALID,75.984,VALID,549.667,VALID,24.917,VALID,74.0,VALID,1.669,
2017-06-17, 09:28:07,VALID,917.964,VALID,0.0,VALID,75.764,VALID,567.936,VALID,24.864,VALID,84.0,VALID,1.061,
2017-06-17, 09:29:07,VALID,917.946,VALID,0.0,VALID,75.18,VALID,568.921,VALID,24.89,VALID,70.0,VALID,0.597,
2017-06-17, 09:30:07,VALID,917.921,VALID,0.0,VALID,74.652,VALID,569.891,VALID,25.109,VALID,86.0,VALID,0.351,
2017-06-17, 09:31:07,VALID,917.891,VALID,0.0,VALID,77.025,VALID,586.469,VALID,25.215,VALID,77.0,VALID,1.047,
2017-06-17, 09:32:07,VALID,917.88,VALID,0.0,VALID,74.394,VALID,566.559,VALID,25.214,VALID,69.0,VALID,0.874,
2017-06-17, 09:33:07,VALID,917.859,VALID,0.0,VALID,74.334,VALID,566.166,VALID,25.151,VALID,62.0,VALID,1.198,
2017-06-17, 09:34:07,VALID,917.84,VALID,0.0,VALID,77.838,VALID,556.194,VALID,25.112,VALID,80.0,VALID,0.962,
2017-06-17, 09:35:07,VALID,917.82,VALID,0.0,VALID,76.068,VALID,577.362,VALID,25.165,VALID,103.0,VALID,0.796,
2017-06-17, 09:36:07,VALID,917.802,VALID,0.0,VALID,75.218,VALID,600.617,VALID,25.153,VALID,129.0,VALID,0.896,
2017-06-17, 09:37:07,VALID,917.787,VALID,0.0,VALID,75.305,VALID,596.083,VALID,25.17,VALID,146.0,VALID,1.012,
2017-06-17, 09:38:07,VALID,917.768,VALID,0.0,VALID,76.058,VALID,597.876,VALID,25.135,VALID,129.0,VALID,1.408,
2017-06-17, 09:39:07,VALID,917.751,VALID,0.0,VALID,77.58,VALID,582.167,VALID,25.136,VALID,107.0,VALID,1.661,
2017-06-17, 09:40:07,VALID,917.742,VALID,0.0,VALID,78.317,VALID,484.523,VALID,25.042,VALID,63.0,VALID,1.222,
2017-06-17, 09:41:07,VALID,917.743,VALID,0.0,VALID,78.291,VALID,580.0,VALID,25.066,VALID,67.0,VALID,0.778,
2017-06-17, 09:42:07,VALID,917.75,VALID,0.0,VALID,77.04,VALID,610.1,VALID,25.1,VALID,79.0,VALID,0.363,
2017-06-17, 09:43:07,VALID,917.755,VALID,0.0,VALID,76.57,VALID,583.771,VALID,25.188,VALID,63.0,VALID,0.0,
2017-06-17, 09:44:07,VALID,917.763,VALID,0.0,VALID,76.13,VALID,639.893,VALID,25.504,VALID,65.0,VALID,0.105,
2017-06-17, 09:45:07,VALID,917.787,VALID,0.0,VALID,74.424,VALID,542.627,VALID,25.753,VALID,219.0,VALID,0.119,
2017-06-17, 09:46:07,VALID,917.803,VALID,0.0,VALID,73.019,VALID,624.597,VALID,25.914,VALID,233.0,VALID,0.257,
2017-06-17, 09:47:07,VALID,917.811,VALID,0.0,VALID,73.471,VALID,646.511,VALID,26.119,VALID,243.0,VALID,0.424,
2017-06-17, 09:48:07,VALID,917.833,VALID,0.0,VALID,72.936,VALID,725.227,VALID,26.3,VALID,183.0,VALID,0.801,
2017-06-17, 09:49:07,VALID,917.833,VALID,0.0,VALID,72.207,VALID,610.66,VALID,26.301,VALID,215.0,VALID,1.037,
2017-06-17, 09:50:06,VALID,917.823,VALID,0.0,VALID,73.026,VALID,437.631,VALID,26.038,VALID,237.0,VALID,0.825,
2017-06-17, 09:51:06,VALID,917.813,VALID,0.0,VALID,74.23,VALID,400.568,VALID,25.867,VALID,234.0,VALID,0.669,
2017-06-17, 09:52:06,VALID,917.796,VALID,0.0,VALID,74.223,VALID,411.725,VALID,25.756,VALID,254.0,VALID,0.623,
2017-06-17, 09:53:06,VALID,917.775,VALID,0.0,VALID,75.049,VALID,388.583,VALID,25.618,VALID,240.0,VALID,0.528,
2017-06-17, 09:54:06,VALID,917.757,VALID,0.0,VALID,75.798,VALID,407.331,VALID,25.616,VALID,278.0,VALID,0.779,
2017-06-17, 09:55:06,VALID,917.736,VALID,0.0,VALID,77.226,VALID,470.307,VALID,25.488,VALID,272.0,VALID,0.426,
2017-06-17, 09:56:06,VALID,917.721,VALID,0.0,VALID,78.449,VALID,425.562,VALID,25.488,VALID,356.0,VALID,0.608,
2017-06-17, 09:57:06,VALID,917.715,VALID,0.0,VALID,76.482,VALID,423.023,VALID,25.649,VALID,93.0,VALID,0.976,
2017-06-17, 09:58:06,VALID,917.711,VALID,0.0,VALID,69.743,VALID,423.657,VALID,25.579,VALID,150.0,VALID,1.232,
2017-06-17, 09:59:06,VALID,917.714,VALID,0.0,VALID,71.406,VALID,434.394,VALID,25.342,VALID,107.0,VALID,0.276,
2017-06-17, 10:00:06,VALID,917.704,VALID,0.0,VALID,72.206,VALID,476.651,VALID,25.446,VALID,102.0,VALID,0.002,
2017-06-17, 10:01:06,VALID,917.694,VALID,0.0,VALID,71.401,VALID,883.136,VALID,25.775,VALID,76.0,VALID,0.039,
2017-06-17, 10:02:06,VALID,917.692,VALID,0.0,VALID,70.09,VALID,878.274,VALID,26.117,VALID,79.0,VALID,0.082,
2017-06-17, 10:03:06,VALID,917.676,VALID,0.0,VALID,69.257,VALID,609.804,VALID,26.49,VALID,53.0,VALID,0.202,
2017-06-17, 10:04:06,VALID,917.671,VALID,0.0,VALID,69.26,VALID,556.25,VALID,26.785,VALID,188.0,VALID,0.455,
2017-06-17, 10:05:06,VALID,917.679,VALID,0.0,VALID,68.801,VALID,660.46,VALID,27.055,VALID,20.0,VALID,0.564,
2017-06-17, 10:06:06,VALID,917.683,VALID,0.0,VALID,68.441,VALID,381.696,VALID,27.268,VALID,321.0,VALID,0.146,
2017-06-17, 10:07:06,VALID,917.68,VALID,0.0,VALID,68.805,VALID,366.504,VALID,27.193,VALID,287.0,VALID,0.563,
2017-06-17, 10:08:06,VALID,917.683,VALID,0.0,VALID,70.295,VALID,367.167,VALID,27.073,VALID,359.0,VALID,0.655,
2017-06-17, 10:09:06,VALID,917.678,VALID,0.0,VALID,68.671,VALID,368.932,VALID,27.051,VALID,10.0,VALID,0.998,
2017-06-17, 10:10:06,VALID,917.691,VALID,0.0,VALID,67.899,VALID,367.379,VALID,26.787,VALID,16.0,VALID,0.641,
2017-06-17, 10:11:06,VALID,917.7,VALID,0.0,VALID,69.114,VALID,365.334,VALID,26.569,VALID,351.0,VALID,0.095,
2017-06-17, 10:12:06,VALID,917.708,VALID,0.0,VALID,71.282,VALID,360.401,VALID,26.571,VALID,323.0,VALID,0.298,
2017-06-17, 10:13:06,VALID,917.707,VALID,0.0,VALID,71.392,VALID,344.012,VALID,26.555,VALID,325.0,VALID,0.337,
2017-06-17, 10:14:06,VALID,917.705,VALID,0.0,VALID,71.761,VALID,358.092,VALID,26.51,VALID,12.0,VALID,0.3,
2017-06-17, 10:15:06,VALID,917.698,VALID,0.0,VALID,72.366,VALID,548.975,VALID,26.564,VALID,277.0,VALID,0.443,
2017-06-17, 10:16:06,VALID,917.684,VALID,0.0,VALID,70.852,VALID,821.454,VALID,26.427,VALID,247.0,VALID,0.566,
2017-06-17, 10:17:06,VALID,917.669,VALID,0.0,VALID,71.781,VALID,896.537,VALID,26.207,VALID,251.0,VALID,1.103,
2017-06-17, 10:18:06,VALID,917.66,VALID,0.0,VALID,71.806,VALID,867.042,VALID,26.0,VALID,237.0,VALID,1.07,
2017-06-17, 10:19:06,VALID,917.644,VALID,0.0,VALID,71.553,VALID,783.344,VALID,25.99,VALID,244.0,VALID,0.844,
2017-06-17, 10:20:06,VALID,917.637,VALID,0.0,VALID,72.558,VALID,722.222,VALID,26.104,VALID,240.0,VALID,0.815,
2017-06-17, 10:21:06,VALID,917.634,VALID,0.0,VALID,72.963,VALID,463.757,VALID,26.323,VALID,264.0,VALID,0.54,
2017-06-17, 10:22:06,VALID,917.641,VALID,0.0,VALID,73.158,VALID,388.381,VALID,26.549,VALID,299.0,VALID,0.327,
2017-06-17, 10:23:06,VALID,917.641,VALID,0.0,VALID,70.854,VALID,372.739,VALID,26.684,VALID,259.0,VALID,0.845,
2017-06-17, 10:24:06,VALID,917.649,VALID,0.0,VALID,68.246,VALID,376.556,VALID,26.407,VALID,269.0,VALID,0.542,
2017-06-17, 10:25:06,VALID,917.64,VALID,0.0,VALID,69.755,VALID,377.959,VALID,26.19,VALID,217.0,VALID,0.277,
2017-06-17, 10:26:06,VALID,917.621,VALID,0.0,VALID,69.943,VALID,387.046,VALID,26.197,VALID,50.0,VALID,0.206,
2017-06-17, 10:27:06,VALID,917.603,VALID,0.0,VALID,70.016,VALID,384.213,VALID,26.257,VALID,314.0,VALID,0.727,
2017-06-17, 10:28:06,VALID,917.588,VALID,0.0,VALID,69.383,VALID,603.759,VALID,26.145,VALID,288.0,VALID,0.43,
2017-06-17, 10:29:06,VALID,917.571,VALID,0.0,VALID,68.72,VALID,767.029,VALID,26.118,VALID,241.0,VALID,0.081,
2017-06-17, 10:30:06,VALID,917.555,VALID,0.0,VALID,68.2,VALID,878.839,VALID,26.315,VALID,213.0,VALID,0.422,
2017-06-17, 10:31:06,VALID,917.535,VALID,0.0,VALID,67.672,VALID,810.806,VALID,26.504,VALID,181.0,VALID,0.367,
2017-06-17, 10:32:06,VALID,917.52,VALID,0.0,VALID,68.927,VALID,552.496,VALID,26.605,VALID,148.0,VALID,0.547,
2017-06-17, 10:33:06,VALID,917.544,VALID,0.0,VALID,69.329,VALID,470.058,VALID,26.813,VALID,239.0,VALID,0.08,
2017-06-17, 10:34:06,VALID,917.578,VALID,0.0,VALID,70.026,VALID,464.636,VALID,27.06,VALID,254.0,VALID,0.367,
2017-06-17, 10:35:06,VALID,917.594,VALID,0.0,VALID,70.115,VALID,487.416,VALID,26.988,VALID,298.0,VALID,0.306,